owner,sensor,date,latitude,longitude,vertical_datum,wind_speed,wind_to_direction,wind_speed_of_gust,qcFlag 
LOOP,urn:ioos:station:wmo:lopl1:1,2015-10-01T00:04:00Z,28.8850,-90.0250,10.0,2.4,307.0,3.0,'11111222,11111222,11111222' 
LOOP,urn:ioos:station:wmo:lopl1:1,2015-10-01T00:19:00Z,28.8850,-90.0250,10.0,3.1,305.0,4.3,'11111222,11111222,11111222' 
LOOP,urn:ioos:station:wmo:lopl1:1,2015-10-01T00:34:00Z,28.8850,-90.0250,10.0,2.9,297.0,4.1,'11111222,11111222,11111222' 
LOOP,urn:ioos:station:wmo:lopl1:1,2015-10-01T00:49:00Z,28.8850,-90.0250,10.0,3.8,287.0,4.7,'11111222,11111222,11111222' 
LOOP,urn:ioos:station:wmo:lopl1:1,2015-10-01T01:04:00Z,28.8850,-90.0250,10.0,3.0,282.0,4.4,'11111222,11111222,11111222' 
LOOP,urn:ioos:station:wmo:lopl1:1,2015-10-01T01:19:00Z,28.8850,-90.0250,10.0,3.3,288.0,4.5,'11111222,11111222,11111222' 
LOOP,urn:ioos:station:wmo:lopl1:1,2015-10-01T01:34:00Z,28.8850,-90.0250,10.0,3.6,294.0,4.5,'11111222,11111222,11111222' 
LOOP,urn:ioos:station:wmo:lopl1:1,2015-10-01T01:49:00Z,28.8850,-90.0250,10.0,3.9,287.0,5.0,'11111222,11111222,11111222' 
LOOP,urn:ioos:station:wmo:lopl1:1,2015-10-01T02:04:00Z,28.8850,-90.0250,10.0,4.2,300.0,5.3,'11111222,11111222,11111222' 
LOOP,urn:ioos:station:wmo:lopl1:1,2015-10-01T02:19:00Z,28.8850,-90.0250,10.0,5.2,311.0,5.9,'11111222,11111222,11111222' 
LOOP,urn:ioos:station:wmo:lopl1:1,2015-10-01T02:34:00Z,28.8850,-90.0250,10.0,3.7,310.0,5.2,'11111222,11111222,11111222' 
LOOP,urn:ioos:station:wmo:lopl1:1,2015-10-01T02:49:00Z,28.8850,-90.0250,10.0,5.1,308.0,6.2,'11111222,11111222,11111222' 
LOOP,urn:ioos:station:wmo:lopl1:1,2015-10-01T03:04:00Z,28.8850,-90.0250,10.0,5.0,307.0,6.0,'11111222,11111222,11111222' 
LOOP,urn:ioos:station:wmo:lopl1:1,2015-10-01T03:19:00Z,28.8850,-90.0250,10.0,5.3,317.0,7.1,'11111222,11111222,11111222' 
LOOP,urn:ioos:station:wmo:lopl1:1,2015-10-01T03:34:00Z,28.8850,-90.0250,10.0,4.4,336.0,6.0,'11111222,11111222,11111222' 
LOOP,urn:ioos:station:wmo:lopl1:1,2015-10-01T03:49:00Z,28.8850,-90.0250,10.0,6.1,321.0,8.7,'11111222,11111222,11111222' 
LOOP,urn:ioos:station:wmo:lopl1:1,2015-10-01T04:14:00Z,28.8850,-90.0250,10.0,7.5,337.0,9.5,'11111222,11111222,11111222' 
LOOP,urn:ioos:station:wmo:lopl1:1,2015-10-01T04:29:00Z,28.8850,-90.0250,10.0,6.4,339.0,7.5,'11111222,11111222,11111222' 
LOOP,urn:ioos:station:wmo:lopl1:1,2015-10-01T04:44:00Z,28.8850,-90.0250,10.0,6.7,325.0,8.6,'11111222,11111222,11111222' 
LOOP,urn:ioos:station:wmo:lopl1:1,2015-10-01T04:59:00Z,28.8850,-90.0250,10.0,6.9,335.0,8.8,'11111222,11111222,11111222' 
LOOP,urn:ioos:station:wmo:lopl1:1,2015-10-01T05:14:00Z,28.8850,-90.0250,10.0,9.8,354.0,12.2,'11111222,11111222,11111222' 
LOOP,urn:ioos:station:wmo:lopl1:1,2015-10-01T05:29:00Z,28.8850,-90.0250,10.0,9.8,357.0,11.9,'11111222,11111222,11111222' 
LOOP,urn:ioos:station:wmo:lopl1:1,2015-10-01T05:44:00Z,28.8850,-90.0250,10.0,11.3,6.0,12.7,'11111222,11111222,11111222' 
LOOP,urn:ioos:station:wmo:lopl1:1,2015-10-01T05:59:00Z,28.8850,-90.0250,10.0,11.9,16.0,13.5,'11111222,11111222,11111222' 
LOOP,urn:ioos:station:wmo:lopl1:1,2015-10-01T06:14:00Z,28.8850,-90.0250,10.0,13.0,13.0,14.4,'11111222,11111222,11111222' 
LOOP,urn:ioos:station:wmo:lopl1:1,2015-10-01T06:34:00Z,28.8850,-90.0250,10.0,13.0,13.0,14.5,'11111222,11111222,11111222' 
LOOP,urn:ioos:station:wmo:lopl1:1,2015-10-01T06:49:00Z,28.8850,-90.0250,10.0,14.9,16.0,16.2,'11111222,11111222,11111222' 
LOOP,urn:ioos:station:wmo:lopl1:1,2015-10-01T07:04:00Z,28.8850,-90.0250,10.0,13.8,12.0,15.7,'11111222,11111222,11111222' 
LOOP,urn:ioos:station:wmo:lopl1:1,2015-10-01T07:19:00Z,28.8850,-90.0250,10.0,13.4,12.0,15.7,'11111222,11111222,11111222' 
LOOP,urn:ioos:station:wmo:lopl1:1,2015-10-01T07:34:00Z,28.8850,-90.0250,10.0,13.7,11.0,15.7,'11111222,11111222,11111222' 
LOOP,urn:ioos:station:wmo:lopl1:1,2015-10-01T07:49:00Z,28.8850,-90.0250,10.0,14.0,13.0,15.7,'11111222,11111222,11111222' 
LOOP,urn:ioos:station:wmo:lopl1:1,2015-10-01T08:04:00Z,28.8850,-90.0250,10.0,13.1,14.0,14.6,'11111222,11111222,11111222' 
LOOP,urn:ioos:station:wmo:lopl1:1,2015-10-01T08:19:00Z,28.8850,-90.0250,10.0,11.9,10.0,14.2,'11111222,11111222,11111222' 
LOOP,urn:ioos:station:wmo:lopl1:1,2015-10-01T08:34:00Z,28.8850,-90.0250,10.0,12.8,16.0,14.5,'11111222,11111222,11111222' 
LOOP,urn:ioos:station:wmo:lopl1:1,2015-10-01T08:49:00Z,28.8850,-90.0250,10.0,11.8,14.0,13.5,'11111222,11111222,11111222' 
LOOP,urn:ioos:station:wmo:lopl1:1,2015-10-01T09:04:00Z,28.8850,-90.0250,10.0,11.5,18.0,12.9,'11111222,11111222,11111222' 
LOOP,urn:ioos:station:wmo:lopl1:1,2015-10-01T09:19:00Z,28.8850,-90.0250,10.0,11.6,18.0,13.5,'11111222,11111222,11111222' 
LOOP,urn:ioos:station:wmo:lopl1:1,2015-10-01T09:54:00Z,28.8850,-90.0250,10.0,11.8,13.0,12.7,'11111222,11111222,11111222' 
LOOP,urn:ioos:station:wmo:lopl1:1,2015-10-01T10:09:00Z,28.8850,-90.0250,10.0,11.1,14.0,13.0,'11111222,11111222,11111222' 
LOOP,urn:ioos:station:wmo:lopl1:1,2015-10-01T10:24:00Z,28.8850,-90.0250,10.0,11.0,11.0,12.7,'11111222,11111222,11111222' 
LOOP,urn:ioos:station:wmo:lopl1:1,2015-10-01T10:39:00Z,28.8850,-90.0250,10.0,10.4,15.0,12.4,'11111222,11111222,11111222' 
LOOP,urn:ioos:station:wmo:lopl1:1,2015-10-01T10:54:00Z,28.8850,-90.0250,10.0,12.1,17.0,13.9,'11111222,11111222,11111222' 
LOOP,urn:ioos:station:wmo:lopl1:1,2015-10-01T11:09:00Z,28.8850,-90.0250,10.0,12.0,16.0,13.5,'11111222,11111222,11111222' 
LOOP,urn:ioos:station:wmo:lopl1:1,2015-10-01T11:24:00Z,28.8850,-90.0250,10.0,11.2,16.0,12.4,'11111222,11111222,11111222' 
LOOP,urn:ioos:station:wmo:lopl1:1,2015-10-01T11:39:00Z,28.8850,-90.0250,10.0,12.0,11.0,13.4,'11111222,11111222,11111222' 
LOOP,urn:ioos:station:wmo:lopl1:1,2015-10-01T11:54:00Z,28.8850,-90.0250,10.0,11.5,14.0,13.3,'11111222,11111222,11111222' 
LOOP,urn:ioos:station:wmo:lopl1:1,2015-10-01T12:09:00Z,28.8850,-90.0250,10.0,12.0,6.0,13.7,'11111222,11111222,11111222' 
LOOP,urn:ioos:station:wmo:lopl1:1,2015-10-01T12:24:00Z,28.8850,-90.0250,10.0,11.2,12.0,13.2,'11111222,11111222,11111222' 
LOOP,urn:ioos:station:wmo:lopl1:1,2015-10-01T12:39:00Z,28.8850,-90.0250,10.0,11.8,12.0,14.3,'11111222,11111222,11111222' 
LOOP,urn:ioos:station:wmo:lopl1:1,2015-10-01T12:54:00Z,28.8850,-90.0250,10.0,11.9,5.0,14.0,'11111222,11111222,11111222' 
LOOP,urn:ioos:station:wmo:lopl1:1,2015-10-01T13:09:00Z,28.8850,-90.0250,10.0,11.1,359.0,13.4,'11111222,11111222,11111222' 
LOOP,urn:ioos:station:wmo:lopl1:1,2015-10-01T13:29:00Z,28.8850,-90.0250,10.0,11.2,3.0,12.9,'11111222,11111222,11111222' 
LOOP,urn:ioos:station:wmo:lopl1:1,2015-10-01T13:44:00Z,28.8850,-90.0250,10.0,11.0,359.0,14.1,'11111222,11111222,11111222' 
LOOP,urn:ioos:station:wmo:lopl1:1,2015-10-01T13:59:00Z,28.8850,-90.0250,10.0,11.3,12.0,13.3,'11111222,11111222,11111222' 
LOOP,urn:ioos:station:wmo:lopl1:1,2015-10-01T14:14:00Z,28.8850,-90.0250,10.0,10.9,359.0,12.7,'11111222,11111222,11111222' 
LOOP,urn:ioos:station:wmo:lopl1:1,2015-10-01T14:29:00Z,28.8850,-90.0250,10.0,10.6,3.0,11.9,'11111222,11111222,11111222' 
LOOP,urn:ioos:station:wmo:lopl1:1,2015-10-01T14:44:00Z,28.8850,-90.0250,10.0,9.8,3.0,11.9,'11111222,11111222,11111222' 
LOOP,urn:ioos:station:wmo:lopl1:1,2015-10-01T14:59:00Z,28.8850,-90.0250,10.0,9.8,357.0,12.1,'11111222,11111222,11111222' 
LOOP,urn:ioos:station:wmo:lopl1:1,2015-10-01T15:14:00Z,28.8850,-90.0250,10.0,9.0,0.0,10.9,'11111222,11111222,11111222' 
LOOP,urn:ioos:station:wmo:lopl1:1,2015-10-01T15:29:00Z,28.8850,-90.0250,10.0,8.8,358.0,10.8,'11111222,11111222,11111222' 
LOOP,urn:ioos:station:wmo:lopl1:1,2015-10-01T15:44:00Z,28.8850,-90.0250,10.0,8.5,3.0,10.0,'11111222,11111222,11111222' 
LOOP,urn:ioos:station:wmo:lopl1:1,2015-10-01T15:59:00Z,28.8850,-90.0250,10.0,9.7,358.0,11.8,'11111222,11111222,11111222' 
LOOP,urn:ioos:station:wmo:lopl1:1,2015-10-01T16:14:00Z,28.8850,-90.0250,10.0,9.2,9.0,11.0,'11111222,11111222,11111222' 
LOOP,urn:ioos:station:wmo:lopl1:1,2015-10-01T16:29:00Z,28.8850,-90.0250,10.0,8.3,347.0,11.9,'11111222,11111222,11111222' 
LOOP,urn:ioos:station:wmo:lopl1:1,2015-10-01T16:44:00Z,28.8850,-90.0250,10.0,8.1,357.0,10.1,'11111222,11111222,11111222' 
LOOP,urn:ioos:station:wmo:lopl1:1,2015-10-01T16:59:00Z,28.8850,-90.0250,10.0,7.6,343.0,10.5,'11111222,11111222,11111222' 
LOOP,urn:ioos:station:wmo:lopl1:1,2015-10-01T17:14:00Z,28.8850,-90.0250,10.0,9.1,359.0,11.3,'11111222,11111222,11111222' 
LOOP,urn:ioos:station:wmo:lopl1:1,2015-10-01T17:29:00Z,28.8850,-90.0250,10.0,8.4,353.0,10.9,'11111222,11111222,11111222' 
LOOP,urn:ioos:station:wmo:lopl1:1,2015-10-01T17:44:00Z,28.8850,-90.0250,10.0,8.0,355.0,10.3,'11111222,11111222,11111222' 
LOOP,urn:ioos:station:wmo:lopl1:1,2015-10-01T17:54:00Z,28.8850,-90.0250,10.0,8.6,358.0,11.7,'11111222,11111222,11111222' 
LOOP,urn:ioos:station:wmo:lopl1:1,2015-10-01T18:10:00Z,28.8850,-90.0250,10.0,8.4,340.0,11.0,'11111222,11111222,11111222' 
LOOP,urn:ioos:station:wmo:lopl1:1,2015-10-01T18:25:00Z,28.8850,-90.0250,10.0,9.2,338.0,11.4,'11111222,11111222,11111222' 
LOOP,urn:ioos:station:wmo:lopl1:1,2015-10-01T18:40:00Z,28.8850,-90.0250,10.0,8.2,350.0,11.8,'11111222,11111222,11111222' 
LOOP,urn:ioos:station:wmo:lopl1:1,2015-10-01T18:55:00Z,28.8850,-90.0250,10.0,9.1,348.0,12.1,'11111222,11111222,11111222' 
LOOP,urn:ioos:station:wmo:lopl1:1,2015-10-01T19:10:00Z,28.8850,-90.0250,10.0,9.4,348.0,12.5,'11111222,11111222,11111222' 
LOOP,urn:ioos:station:wmo:lopl1:1,2015-10-01T19:25:00Z,28.8850,-90.0250,10.0,10.4,354.0,14.4,'11111222,11111222,11111222' 
LOOP,urn:ioos:station:wmo:lopl1:1,2015-10-01T19:40:00Z,28.8850,-90.0250,10.0,8.9,343.0,11.4,'11111222,11111222,11111222' 
LOOP,urn:ioos:station:wmo:lopl1:1,2015-10-01T19:55:00Z,28.8850,-90.0250,10.0,10.8,345.0,13.0,'11111222,11111222,11111222' 
LOOP,urn:ioos:station:wmo:lopl1:1,2015-10-01T20:10:00Z,28.8850,-90.0250,10.0,10.6,358.0,13.6,'11111222,11111222,11111222' 
LOOP,urn:ioos:station:wmo:lopl1:1,2015-10-01T20:25:00Z,28.8850,-90.0250,10.0,9.5,353.0,13.7,'11111222,11111222,11111222' 
LOOP,urn:ioos:station:wmo:lopl1:1,2015-10-01T20:40:00Z,28.8850,-90.0250,10.0,10.8,352.0,13.6,'11111222,11111222,11111222' 
LOOP,urn:ioos:station:wmo:lopl1:1,2015-10-01T20:55:00Z,28.8850,-90.0250,10.0,9.5,349.0,11.9,'11111222,11111222,11111222' 
LOOP,urn:ioos:station:wmo:lopl1:1,2015-10-01T21:10:00Z,28.8850,-90.0250,10.0,9.9,354.0,12.3,'11111222,11111222,11111222' 
LOOP,urn:ioos:station:wmo:lopl1:1,2015-10-01T21:30:00Z,28.8850,-90.0250,10.0,9.4,352.0,12.6,'11111222,11111222,11111222' 
LOOP,urn:ioos:station:wmo:lopl1:1,2015-10-01T21:45:00Z,28.8850,-90.0250,10.0,9.9,345.0,12.9,'11111222,11111222,11111222' 
LOOP,urn:ioos:station:wmo:lopl1:1,2015-10-01T22:00:00Z,28.8850,-90.0250,10.0,10.2,357.0,13.1,'11111222,11111222,11111222' 
LOOP,urn:ioos:station:wmo:lopl1:1,2015-10-01T22:15:00Z,28.8850,-90.0250,10.0,10.6,356.0,13.2,'11111222,11111222,11111222' 
LOOP,urn:ioos:station:wmo:lopl1:1,2015-10-01T22:30:00Z,28.8850,-90.0250,10.0,10.3,3.0,12.1,'11111222,11111222,11111222' 
LOOP,urn:ioos:station:wmo:lopl1:1,2015-10-01T22:45:00Z,28.8850,-90.0250,10.0,10.1,10.0,12.3,'11111222,11111222,11111222' 
LOOP,urn:ioos:station:wmo:lopl1:1,2015-10-01T23:00:00Z,28.8850,-90.0250,10.0,10.0,348.0,12.2,'11111222,11111222,11111222' 
LOOP,urn:ioos:station:wmo:lopl1:1,2015-10-01T23:15:00Z,28.8850,-90.0250,10.0,9.8,356.0,12.0,'11111222,11111222,11111222' 
LOOP,urn:ioos:station:wmo:lopl1:1,2015-10-01T23:30:00Z,28.8850,-90.0250,10.0,9.3,348.0,11.9,'11111222,11111222,11111222' 
LOOP,urn:ioos:station:wmo:lopl1:1,2015-10-01T23:45:00Z,28.8850,-90.0250,10.0,8.3,350.0,10.7,'11111222,11111222,11111222' 
LOOP,urn:ioos:station:wmo:lopl1:1,2015-10-02T00:00:00Z,28.8850,-90.0250,10.0,9.3,350.0,11.7,'11111222,11111222,11111222' 
LOOP,urn:ioos:station:wmo:lopl1:1,2015-10-02T00:15:00Z,28.8850,-90.0250,10.0,8.8,342.0,11.4,'11111222,11111222,11111222' 
LOOP,urn:ioos:station:wmo:lopl1:1,2015-10-02T00:30:00Z,28.8850,-90.0250,10.0,9.1,344.0,11.3,'11111222,11111222,11111222' 
LOOP,urn:ioos:station:wmo:lopl1:1,2015-10-02T00:45:00Z,28.8850,-90.0250,10.0,8.8,344.0,11.1,'11111222,11111222,11111222' 
LOOP,urn:ioos:station:wmo:lopl1:1,2015-10-02T01:00:00Z,28.8850,-90.0250,10.0,8.9,347.0,11.1,'11111222,11111222,11111222' 
LOOP,urn:ioos:station:wmo:lopl1:1,2015-10-02T01:15:00Z,28.8850,-90.0250,10.0,8.3,347.0,10.9,'11111222,11111222,11111222' 
LOOP,urn:ioos:station:wmo:lopl1:1,2015-10-02T01:30:00Z,28.8850,-90.0250,10.0,7.8,340.0,9.8,'11111222,11111222,11111222' 
LOOP,urn:ioos:station:wmo:lopl1:1,2015-10-02T01:45:00Z,28.8850,-90.0250,10.0,7.9,345.0,9.5,'11111222,11111222,11111222' 
LOOP,urn:ioos:station:wmo:lopl1:1,2015-10-02T02:00:00Z,28.8850,-90.0250,10.0,8.2,346.0,9.9,'11111222,11111222,11111222' 
LOOP,urn:ioos:station:wmo:lopl1:1,2015-10-02T02:15:00Z,28.8850,-90.0250,10.0,8.9,349.0,11.3,'11111222,11111222,11111222' 
LOOP,urn:ioos:station:wmo:lopl1:1,2015-10-02T02:30:00Z,28.8850,-90.0250,10.0,10.1,339.0,11.8,'11111222,11111222,11111222' 
LOOP,urn:ioos:station:wmo:lopl1:1,2015-10-02T02:55:00Z,28.8850,-90.0250,10.0,10.1,342.0,12.9,'11111222,11111222,11111222' 
LOOP,urn:ioos:station:wmo:lopl1:1,2015-10-02T03:10:00Z,28.8850,-90.0250,10.0,10.2,344.0,12.7,'11111222,11111222,11111222' 
LOOP,urn:ioos:station:wmo:lopl1:1,2015-10-02T03:25:00Z,28.8850,-90.0250,10.0,10.0,345.0,12.4,'11111222,11111222,11111222' 
LOOP,urn:ioos:station:wmo:lopl1:1,2015-10-02T03:40:00Z,28.8850,-90.0250,10.0,9.9,340.0,12.9,'11111222,11111222,11111222' 
LOOP,urn:ioos:station:wmo:lopl1:1,2015-10-02T03:55:00Z,28.8850,-90.0250,10.0,10.6,341.0,12.3,'11111222,11111222,11111222' 
LOOP,urn:ioos:station:wmo:lopl1:1,2015-10-02T04:10:00Z,28.8850,-90.0250,10.0,10.8,337.0,14.2,'11111222,11111222,11111222' 
LOOP,urn:ioos:station:wmo:lopl1:1,2015-10-02T04:25:00Z,28.8850,-90.0250,10.0,11.0,348.0,14.1,'11111222,11111222,11111222' 
LOOP,urn:ioos:station:wmo:lopl1:1,2015-10-02T04:45:00Z,28.8850,-90.0250,10.0,10.1,9.0,19.8,'11111222,11111222,11111222' 
LOOP,urn:ioos:station:wmo:lopl1:1,2015-10-02T05:10:00Z,28.8850,-90.0250,10.0,13.6,6.0,16.6,'11111222,11111222,11111222' 
LOOP,urn:ioos:station:wmo:lopl1:1,2015-10-02T05:25:00Z,28.8850,-90.0250,10.0,13.2,358.0,15.3,'11111222,11111222,11111222' 
LOOP,urn:ioos:station:wmo:lopl1:1,2015-10-02T05:40:00Z,28.8850,-90.0250,10.0,10.9,15.0,13.0,'11111222,11111222,11111222' 
LOOP,urn:ioos:station:wmo:lopl1:1,2015-10-02T05:55:00Z,28.8850,-90.0250,10.0,11.8,351.0,15.5,'11111222,11111222,11111222' 
LOOP,urn:ioos:station:wmo:lopl1:1,2015-10-02T06:10:00Z,28.8850,-90.0250,10.0,13.0,355.0,15.7,'11111222,11111222,11111222' 
LOOP,urn:ioos:station:wmo:lopl1:1,2015-10-02T06:25:00Z,28.8850,-90.0250,10.0,12.5,4.0,16.5,'11111222,11111222,11111222' 
LOOP,urn:ioos:station:wmo:lopl1:1,2015-10-02T06:40:00Z,28.8850,-90.0250,10.0,13.4,352.0,17.3,'11111222,11111222,11111222' 
LOOP,urn:ioos:station:wmo:lopl1:1,2015-10-02T06:55:00Z,28.8850,-90.0250,10.0,11.7,352.0,14.5,'11111222,11111222,11111222' 
LOOP,urn:ioos:station:wmo:lopl1:1,2015-10-02T07:10:00Z,28.8850,-90.0250,10.0,11.5,5.0,14.1,'11111222,11111222,11111222' 
LOOP,urn:ioos:station:wmo:lopl1:1,2015-10-02T07:25:00Z,28.8850,-90.0250,10.0,11.0,0.0,12.8,'11111222,11111222,11111222' 
LOOP,urn:ioos:station:wmo:lopl1:1,2015-10-02T07:40:00Z,28.8850,-90.0250,10.0,10.6,5.0,12.8,'11111222,11111222,11111222' 
LOOP,urn:ioos:station:wmo:lopl1:1,2015-10-02T07:55:00Z,28.8850,-90.0250,10.0,10.3,6.0,11.8,'11111222,11111222,11111222' 
LOOP,urn:ioos:station:wmo:lopl1:1,2015-10-02T08:10:00Z,28.8850,-90.0250,10.0,10.1,10.0,11.8,'11111222,11111222,11111222' 
LOOP,urn:ioos:station:wmo:lopl1:1,2015-10-02T08:25:00Z,28.8850,-90.0250,10.0,9.8,359.0,11.5,'11111222,11111222,11111222' 
LOOP,urn:ioos:station:wmo:lopl1:1,2015-10-02T08:50:00Z,28.8850,-90.0250,10.0,9.8,359.0,11.9,'11111222,11111222,11111222' 
LOOP,urn:ioos:station:wmo:lopl1:1,2015-10-02T09:00:00Z,28.8850,-90.0250,10.0,10.4,1.0,11.8,'11111222,11111222,11111222' 
LOOP,urn:ioos:station:wmo:lopl1:1,2015-10-02T09:15:00Z,28.8850,-90.0250,10.0,9.9,8.0,12.5,'11111222,11111222,11111222' 
LOOP,urn:ioos:station:wmo:lopl1:1,2015-10-02T09:45:00Z,28.8850,-90.0250,10.0,9.1,1.0,10.5,'11111222,11111222,11111222' 
LOOP,urn:ioos:station:wmo:lopl1:1,2015-10-02T10:00:00Z,28.8850,-90.0250,10.0,9.4,3.0,11.6,'11111222,11111222,11111222' 
LOOP,urn:ioos:station:wmo:lopl1:1,2015-10-02T10:15:00Z,28.8850,-90.0250,10.0,10.2,359.0,12.7,'11111222,11111222,11111222' 
LOOP,urn:ioos:station:wmo:lopl1:1,2015-10-02T10:30:00Z,28.8850,-90.0250,10.0,10.2,7.0,12.2,'11111222,11111222,11111222' 
LOOP,urn:ioos:station:wmo:lopl1:1,2015-10-02T10:45:00Z,28.8850,-90.0250,10.0,9.8,1.0,11.9,'11111222,11111222,11111222' 
LOOP,urn:ioos:station:wmo:lopl1:1,2015-10-02T11:00:00Z,28.8850,-90.0250,10.0,10.1,359.0,11.8,'11111222,11111222,11111222' 
LOOP,urn:ioos:station:wmo:lopl1:1,2015-10-02T11:15:00Z,28.8850,-90.0250,10.0,9.7,353.0,11.3,'11111222,11111222,11111222' 
LOOP,urn:ioos:station:wmo:lopl1:1,2015-10-02T11:30:00Z,28.8850,-90.0250,10.0,10.2,4.0,11.5,'11111222,11111222,11111222' 
LOOP,urn:ioos:station:wmo:lopl1:1,2015-10-02T11:45:00Z,28.8850,-90.0250,10.0,9.4,1.0,11.8,'11111222,11111222,11111222' 
LOOP,urn:ioos:station:wmo:lopl1:1,2015-10-02T12:00:00Z,28.8850,-90.0250,10.0,10.4,4.0,12.3,'11111222,11111222,11111222' 
LOOP,urn:ioos:station:wmo:lopl1:1,2015-10-02T12:15:00Z,28.8850,-90.0250,10.0,11.0,5.0,13.1,'11111222,11111222,11111222' 
LOOP,urn:ioos:station:wmo:lopl1:1,2015-10-02T12:30:00Z,28.8850,-90.0250,10.0,12.3,359.0,14.7,'11111222,11111222,11111222' 
LOOP,urn:ioos:station:wmo:lopl1:1,2015-10-02T12:45:00Z,28.8850,-90.0250,10.0,11.3,4.0,14.0,'11111222,11111222,11111222' 
LOOP,urn:ioos:station:wmo:lopl1:1,2015-10-02T13:00:00Z,28.8850,-90.0250,10.0,12.1,0.0,14.7,'11111222,11111222,11111222' 
LOOP,urn:ioos:station:wmo:lopl1:1,2015-10-02T13:15:00Z,28.8850,-90.0250,10.0,11.6,345.0,14.4,'11111222,11111222,11111222' 
LOOP,urn:ioos:station:wmo:lopl1:1,2015-10-02T13:30:00Z,28.8850,-90.0250,10.0,10.9,343.0,13.6,'11111222,11111222,11111222' 
LOOP,urn:ioos:station:wmo:lopl1:1,2015-10-02T13:45:00Z,28.8850,-90.0250,10.0,9.2,346.0,11.6,'11111222,11111222,11111222' 
LOOP,urn:ioos:station:wmo:lopl1:1,2015-10-02T14:00:00Z,28.8850,-90.0250,10.0,9.2,350.0,11.9,'11111222,11111222,11111222' 
LOOP,urn:ioos:station:wmo:lopl1:1,2015-10-02T14:15:00Z,28.8850,-90.0250,10.0,8.6,347.0,12.3,'11111222,11111222,11111222' 
LOOP,urn:ioos:station:wmo:lopl1:1,2015-10-02T14:30:00Z,28.8850,-90.0250,10.0,9.3,347.0,12.0,'11111222,11111222,11111222' 
LOOP,urn:ioos:station:wmo:lopl1:1,2015-10-02T14:45:00Z,28.8850,-90.0250,10.0,9.0,348.0,11.6,'11111222,11111222,11111222' 
LOOP,urn:ioos:station:wmo:lopl1:1,2015-10-02T15:00:00Z,28.8850,-90.0250,10.0,8.3,357.0,11.8,'11111222,11111222,11111222' 
LOOP,urn:ioos:station:wmo:lopl1:1,2015-10-02T15:15:00Z,28.8850,-90.0250,10.0,8.2,354.0,10.8,'11111222,11111222,11111222' 
LOOP,urn:ioos:station:wmo:lopl1:1,2015-10-02T15:35:00Z,28.8850,-90.0250,10.0,9.0,341.0,11.0,'11111222,11111222,11111222' 
LOOP,urn:ioos:station:wmo:lopl1:1,2015-10-02T15:55:00Z,28.8850,-90.0250,10.0,8.1,336.0,11.7,'11111222,11111222,11111222' 
LOOP,urn:ioos:station:wmo:lopl1:1,2015-10-02T16:10:00Z,28.8850,-90.0250,10.0,7.7,339.0,10.3,'11111222,11111222,11111222' 
LOOP,urn:ioos:station:wmo:lopl1:1,2015-10-02T16:25:00Z,28.8850,-90.0250,10.0,7.8,340.0,10.3,'11111222,11111222,11111222' 
LOOP,urn:ioos:station:wmo:lopl1:1,2015-10-02T16:40:00Z,28.8850,-90.0250,10.0,8.5,344.0,11.5,'11111222,11111222,11111222' 
LOOP,urn:ioos:station:wmo:lopl1:1,2015-10-02T16:55:00Z,28.8850,-90.0250,10.0,7.8,338.0,10.6,'11111222,11111222,11111222' 
LOOP,urn:ioos:station:wmo:lopl1:1,2015-10-02T17:10:00Z,28.8850,-90.0250,10.0,7.5,345.0,9.6,'11111222,11111222,11111222' 
LOOP,urn:ioos:station:wmo:lopl1:1,2015-10-02T17:25:00Z,28.8850,-90.0250,10.0,7.7,348.0,9.7,'11111222,11111222,11111222' 
LOOP,urn:ioos:station:wmo:lopl1:1,2015-10-02T17:40:00Z,28.8850,-90.0250,10.0,6.9,340.0,10.3,'11111222,11111222,11111222' 
LOOP,urn:ioos:station:wmo:lopl1:1,2015-10-02T17:55:00Z,28.8850,-90.0250,10.0,8.0,356.0,10.8,'11111222,11111222,11111222' 
LOOP,urn:ioos:station:wmo:lopl1:1,2015-10-02T18:10:00Z,28.8850,-90.0250,10.0,7.8,340.0,10.0,'11111222,11111222,11111222' 
LOOP,urn:ioos:station:wmo:lopl1:1,2015-10-02T18:25:00Z,28.8850,-90.0250,10.0,7.9,337.0,10.5,'11111222,11111222,11111222' 
LOOP,urn:ioos:station:wmo:lopl1:1,2015-10-02T18:40:00Z,28.8850,-90.0250,10.0,7.9,334.0,10.7,'11111222,11111222,11111222' 
LOOP,urn:ioos:station:wmo:lopl1:1,2015-10-02T18:55:00Z,28.8850,-90.0250,10.0,8.3,348.0,11.0,'11111222,11111222,11111222' 
LOOP,urn:ioos:station:wmo:lopl1:1,2015-10-02T19:10:00Z,28.8850,-90.0250,10.0,8.9,339.0,11.3,'11111222,11111222,11111222' 
LOOP,urn:ioos:station:wmo:lopl1:1,2015-10-02T19:25:00Z,28.8850,-90.0250,10.0,8.9,351.0,12.4,'11111222,11111222,11111222' 
LOOP,urn:ioos:station:wmo:lopl1:1,2015-10-02T19:40:00Z,28.8850,-90.0250,10.0,8.7,2.0,11.1,'11111222,11111222,11111222' 
LOOP,urn:ioos:station:wmo:lopl1:1,2015-10-02T19:55:00Z,28.8850,-90.0250,10.0,8.8,344.0,12.2,'11111222,11111222,11111222' 
LOOP,urn:ioos:station:wmo:lopl1:1,2015-10-02T20:10:00Z,28.8850,-90.0250,10.0,8.8,355.0,11.0,'11111222,11111222,11111222' 
LOOP,urn:ioos:station:wmo:lopl1:1,2015-10-02T20:25:00Z,28.8850,-90.0250,10.0,8.7,359.0,11.6,'11111222,11111222,11111222' 
LOOP,urn:ioos:station:wmo:lopl1:1,2015-10-02T20:40:00Z,28.8850,-90.0250,10.0,8.8,357.0,12.6,'11111222,11111222,11111222' 
LOOP,urn:ioos:station:wmo:lopl1:1,2015-10-02T20:55:00Z,28.8850,-90.0250,10.0,9.4,358.0,12.0,'11111222,11111222,11111222' 
LOOP,urn:ioos:station:wmo:lopl1:1,2015-10-02T21:10:00Z,28.8850,-90.0250,10.0,10.2,348.0,12.9,'11111222,11111222,11111222' 
LOOP,urn:ioos:station:wmo:lopl1:1,2015-10-02T21:25:00Z,28.8850,-90.0250,10.0,10.5,344.0,12.8,'11111222,11111222,11111222' 
LOOP,urn:ioos:station:wmo:lopl1:1,2015-10-02T21:40:00Z,28.8850,-90.0250,10.0,10.8,7.0,13.9,'11111222,11111222,11111222' 
LOOP,urn:ioos:station:wmo:lopl1:1,2015-10-02T21:55:00Z,28.8850,-90.0250,10.0,9.8,0.0,14.1,'11111222,11111222,11111222' 
LOOP,urn:ioos:station:wmo:lopl1:1,2015-10-02T22:10:00Z,28.8850,-90.0250,10.0,11.2,356.0,13.7,'11111222,11111222,11111222' 
LOOP,urn:ioos:station:wmo:lopl1:1,2015-10-02T22:25:00Z,28.8850,-90.0250,10.0,8.5,9.0,11.1,'11111222,11111222,11111222' 
LOOP,urn:ioos:station:wmo:lopl1:1,2015-10-02T22:40:00Z,28.8850,-90.0250,10.0,9.4,3.0,12.4,'11111222,11111222,11111222' 
LOOP,urn:ioos:station:wmo:lopl1:1,2015-10-02T22:55:00Z,28.8850,-90.0250,10.0,10.3,4.0,12.0,'11111222,11111222,11111222' 
LOOP,urn:ioos:station:wmo:lopl1:1,2015-10-02T23:10:00Z,28.8850,-90.0250,10.0,9.6,7.0,12.3,'11111222,11111222,11111222' 
LOOP,urn:ioos:station:wmo:lopl1:1,2015-10-02T23:25:00Z,28.8850,-90.0250,10.0,9.6,16.0,11.7,'11111222,11111222,11111222' 
LOOP,urn:ioos:station:wmo:lopl1:1,2015-10-02T23:40:00Z,28.8850,-90.0250,10.0,9.5,13.0,11.8,'11111222,11111222,11111222' 
LOOP,urn:ioos:station:wmo:lopl1:1,2015-10-03T00:00:00Z,28.8850,-90.0250,10.0,9.7,21.0,12.7,'11111222,11111222,11111222' 
LOOP,urn:ioos:station:wmo:lopl1:1,2015-10-03T00:15:00Z,28.8850,-90.0250,10.0,10.8,13.0,13.0,'11111222,11111222,11111222' 
LOOP,urn:ioos:station:wmo:lopl1:1,2015-10-03T00:30:00Z,28.8850,-90.0250,10.0,11.5,14.0,13.8,'11111222,11111222,11111222' 
LOOP,urn:ioos:station:wmo:lopl1:1,2015-10-03T00:45:00Z,28.8850,-90.0250,10.0,10.9,16.0,13.9,'11111222,11111222,11111222' 
LOOP,urn:ioos:station:wmo:lopl1:1,2015-10-03T01:00:00Z,28.8850,-90.0250,10.0,11.1,16.0,13.9,'11111222,11111222,11111222' 
LOOP,urn:ioos:station:wmo:lopl1:1,2015-10-03T01:15:00Z,28.8850,-90.0250,10.0,11.9,7.0,14.5,'11111222,11111222,11111222' 
LOOP,urn:ioos:station:wmo:lopl1:1,2015-10-03T01:30:00Z,28.8850,-90.0250,10.0,11.9,14.0,14.6,'11111222,11111222,11111222' 
LOOP,urn:ioos:station:wmo:lopl1:1,2015-10-03T01:45:00Z,28.8850,-90.0250,10.0,12.4,11.0,16.2,'11111222,11111222,11111222' 
LOOP,urn:ioos:station:wmo:lopl1:1,2015-10-03T02:00:00Z,28.8850,-90.0250,10.0,12.1,9.0,15.2,'11111222,11111222,11111222' 
LOOP,urn:ioos:station:wmo:lopl1:1,2015-10-03T02:15:00Z,28.8850,-90.0250,10.0,10.5,18.0,13.2,'11111222,11111222,11111222' 
LOOP,urn:ioos:station:wmo:lopl1:1,2015-10-03T02:30:00Z,28.8850,-90.0250,10.0,10.8,17.0,14.4,'11111222,11111222,11111222' 